[Date Prev][Date Next][Thread Prev][Thread Next] - [Date Index][Thread Index][Author Index]

2 Line ISS Keps 1-28



ISS
1 25544U 98067A   04028.24470214  .00024415  00000-0  23326-3 0   871
2 25544  51.6303 323.1436 0007784  97.7184  55.6802 15.66557091296204


----
Via the sarex mailing list at AMSAT.ORG courtesy of AMSAT-NA.
To unsubscribe, send "unsubscribe sarex" to Majordomo@amsat.org



AMSAT Top AMSAT Home